Location: Izdebno
(52.6670°N, 16.2170°E)
Time: 10:24:20
(UTC+01:00)

Transit 2A - Pass Details

Date: 29 January 2023
Orbit: 591 x 964 km, 66.7° (Epoch: 21 March)

Event Time Altitude Azimuth Distance (km) Brightness Sun altitude
Rises 00:21:44 0° 314° (NW) 3,325 - -55.3°
Reaches altitude 10° 00:24:27 10° 327° (NNW) 2,455 - -55.2°
Maximum altitude 00:29:19 28° 25° (NNE) 1,612 - -55.1°
Drops below altitude 10° 00:34:32 10° 83° (E) 2,634 - -55.0°
Sets 00:37:33 0° 95° (E) 3,612 - -54.9°
